Track COSMOS 1470 now! 10-day predictions COSMOS 1470 is classified as:
1 14147U 83061A 21061.51179467 .00001254 00000-0 71930-4 0 9991 2 14147 82.4852 148.0384 0013684 283.0965 76.8738 15.11618769809349